Time,TemperatureF,DewpointF,PressureIn,WindDirection,WindDirectionDegrees,WindSpeedMPH,WindSpeedGustMPH,Humidity,HourlyPrecipIn,Conditions,Clouds,dailyrainin,SoftwareType,DateUTC
2013-05-31 00:02:00,61.9,49.1,29.86,West,275,13.0,19.0,44,0.00,,,0.00,meteohub,2013-05-31 07:02:00,
2013-05-31 00:08:00,61.2,49.1,29.86,WSW,240,13.0,22.0,44,0.00,,,0.00,meteohub,2013-05-31 07:08:00,
2013-05-31 00:13:00,61.0,49.1,29.86,WSW,257,13.0,22.0,44,0.00,,,0.00,meteohub,2013-05-31 07:13:00,
2013-05-31 00:19:00,60.6,49.1,29.86,SSE,151,10.0,19.0,44,0.00,,,0.00,meteohub,2013-05-31 07:19:00,
2013-05-31 00:24:00,60.8,48.9,29.86,WSW,240,14.0,19.0,44,0.00,,,0.00,meteohub,2013-05-31 07:24:00,
2013-05-31 00:29:00,60.6,48.9,29.86,WSW,238,14.0,19.0,44,0.00,,,0.00,meteohub,2013-05-31 07:29:00,
2013-05-31 00:35:00,60.6,48.9,29.86,WNW,303,14.0,19.0,44,0.00,,,0.00,meteohub,2013-05-31 07:35:00,
2013-05-31 00:40:00,60.6,48.7,29.86,NE,38,12.0,19.0,44,0.00,,,0.00,meteohub,2013-05-31 07:40:00,
2013-05-31 00:45:00,60.4,48.7,29.86,South,187,10.0,19.0,44,0.00,,,0.00,meteohub,2013-05-31 07:45:00,
2013-05-31 00:51:00,60.3,48.7,29.86,SW,229,16.0,20.0,44,0.00,,,0.00,meteohub,2013-05-31 07:51:00,
2013-05-31 00:55:00,59.5,48.6,29.86,WNW,283,13.0,21.0,44,0.00,,,0.00,meteohub,2013-05-31 07:55:00,
2013-05-31 01:01:00,59.0,48.4,29.86,West,276,13.0,21.0,44,0.00,,,0.00,meteohub,2013-05-31 08:01:00,
2013-05-31 01:06:00,58.6,48.4,29.86,WSW,239,14.0,20.0,44,0.00,,,0.00,meteohub,2013-05-31 08:06:00,
2013-05-31 01:11:00,58.8,48.4,29.86,West,260,12.0,20.0,44,0.00,,,0.00,meteohub,2013-05-31 08:11:00,
2013-05-31 01:17:00,59.4,48.4,29.86,SW,221,13.0,19.0,44,0.00,,,0.00,meteohub,2013-05-31 08:17:00,
2013-05-31 01:22:00,59.5,48.2,29.86,NW,325,13.0,19.0,44,0.00,,,0.00,meteohub,2013-05-31 08:22:00,
2013-05-31 01:27:00,59.5,48.2,29.85,WSW,250,11.0,19.0,44,0.00,,,0.00,meteohub,2013-05-31 08:27:00,
2013-05-31 01:32:00,59.5,48.2,29.85,WSW,250,13.0,19.0,44,0.00,,,0.00,meteohub,2013-05-31 08:32:00,
2013-05-31 01:37:00,60.1,48.0,29.85,NNE,20,9.0,20.0,44,0.00,,,0.00,meteohub,2013-05-31 08:37:00,
2013-05-31 01:43:00,60.6,48.0,29.85,West,267,13.0,20.0,44,0.00,,,0.00,meteohub,2013-05-31 08:43:00,
2013-05-31 01:48:00,61.0,48.0,29.85,WNW,293,10.0,18.0,44,0.00,,,0.00,meteohub,2013-05-31 08:48:00,
2013-05-31 01:53:00,60.6,47.8,29.85,WNW,284,13.0,18.0,44,0.00,,,0.00,meteohub,2013-05-31 08:53:00,
2013-05-31 01:58:00,60.8,47.8,29.85,WSW,252,16.0,18.0,44,0.00,,,0.00,meteohub,2013-05-31 08:58:00,
2013-05-31 02:04:00,61.0,47.8,29.85,ENE,73,14.0,18.0,44,0.00,,,0.00,meteohub,2013-05-31 09:04:00,
2013-05-31 02:09:00,61.5,47.7,29.85,West,274,12.0,17.0,44,0.00,,,0.00,meteohub,2013-05-31 09:09:00,
2013-05-31 02:14:00,61.9,47.7,29.85,SW,235,8.0,18.0,44,0.00,,,0.00,meteohub,2013-05-31 09:14:00,
2013-05-31 02:19:00,61.5,47.5,29.85,WSW,249,12.0,18.0,44,0.00,,,0.00,meteohub,2013-05-31 09:19:00,
2013-05-31 02:25:00,62.1,47.5,29.85,WNW,284,11.0,20.0,44,0.00,,,0.00,meteohub,2013-05-31 09:25:00,
2013-05-31 02:30:00,62.2,46.9,29.85,WSW,243,14.0,20.0,43,0.00,,,0.00,meteohub,2013-05-31 09:30:00,
2013-05-31 02:36:00,62.2,46.8,29.85,SW,217,11.0,19.0,43,0.00,,,0.00,meteohub,2013-05-31 09:36:00,
2013-05-31 02:41:00,62.8,46.8,29.85,WNW,287,11.0,19.0,43,0.00,,,0.00,meteohub,2013-05-31 09:41:00,
2013-05-31 02:46:00,63.1,46.8,29.85,SW,231,16.0,20.0,43,0.00,,,0.00,meteohub,2013-05-31 09:46:00,
2013-05-31 02:51:00,63.3,46.8,29.85,West,260,15.0,20.0,43,0.00,,,0.00,meteohub,2013-05-31 09:51:00,
2013-05-31 02:57:00,63.9,46.6,29.85,West,259,12.0,20.0,43,0.00,,,0.00,meteohub,2013-05-31 09:57:00,
2013-05-31 03:02:00,63.9,46.6,29.85,WSW,239,15.0,19.0,43,0.00,,,0.00,meteohub,2013-05-31 10:02:00,
2013-05-31 03:07:00,64.2,46.6,29.85,WSW,257,11.0,19.0,43,0.00,,,0.00,meteohub,2013-05-31 10:07:00,
2013-05-31 03:12:00,64.2,46.4,29.84,SW,231,14.0,19.0,43,0.00,,,0.00,meteohub,2013-05-31 10:12:00,
2013-05-31 03:18:00,64.2,46.4,29.84,NW,309,8.0,19.0,43,0.00,,,0.00,meteohub,2013-05-31 10:18:00,
2013-05-31 03:23:00,64.2,46.4,29.84,South,188,12.0,18.0,43,0.00,,,0.00,meteohub,2013-05-31 10:23:00,
2013-05-31 03:29:00,64.2,46.4,29.84,SW,226,15.0,18.0,43,0.00,,,0.00,meteohub,2013-05-31 10:29:00,
2013-05-31 03:34:00,63.9,46.2,29.84,WSW,245,13.0,18.0,43,0.00,,,0.00,meteohub,2013-05-31 10:34:00,
2013-05-31 03:40:00,64.0,46.2,29.84,SW,236,16.0,21.0,43,0.00,,,0.00,meteohub,2013-05-31 10:40:00,
2013-05-31 03:45:00,63.9,46.2,29.84,SSW,195,10.0,21.0,43,0.00,,,0.00,meteohub,2013-05-31 10:45:00,
2013-05-31 03:50:00,64.0,46.2,29.84,South,188,10.0,21.0,43,0.00,,,0.00,meteohub,2013-05-31 10:50:00,
2013-05-31 03:56:00,63.9,46.2,29.84,WNW,284,13.0,19.0,43,0.00,,,0.00,meteohub,2013-05-31 10:56:00,
2013-05-31 04:01:00,63.7,46.0,29.83,NNE,15,14.0,21.0,43,0.00,,,0.00,meteohub,2013-05-31 11:01:00,
2013-05-31 04:07:00,63.7,46.0,29.83,NE,53,7.0,22.0,43,0.00,,,0.00,meteohub,2013-05-31 11:07:00,
2013-05-31 04:12:00,64.0,46.0,29.84,WSW,245,13.0,22.0,43,0.00,,,0.00,meteohub,2013-05-31 11:12:00,
2013-05-31 04:17:00,63.9,46.0,29.83,South,173,14.0,22.0,43,0.00,,,0.00,meteohub,2013-05-31 11:17:00,
2013-05-31 04:22:00,63.9,46.0,29.84,East,80,12.0,20.0,43,0.00,,,0.00,meteohub,2013-05-31 11:22:00,
2013-05-31 04:27:00,63.9,45.9,29.84,WSW,258,10.0,18.0,43,0.00,,,0.00,meteohub,2013-05-31 11:27:00,
2013-05-31 04:32:00,63.9,45.9,29.84,WSW,245,8.0,18.0,43,0.00,,,0.00,meteohub,2013-05-31 11:32:00,
2013-05-31 04:38:00,63.7,45.9,29.84,WNW,294,9.0,18.0,43,0.00,,,0.00,meteohub,2013-05-31 11:38:00,
2013-05-31 04:43:00,63.7,45.9,29.84,WSW,238,10.0,18.0,43,0.00,,,0.00,meteohub,2013-05-31 11:43:00,
2013-05-31 04:49:00,63.5,45.7,29.84,NW,305,9.0,17.0,43,0.00,,,0.00,meteohub,2013-05-31 11:49:00,
2013-05-31 04:54:00,63.3,45.7,29.84,ENE,68,11.0,17.0,43,0.00,,,0.00,meteohub,2013-05-31 11:54:00,
2013-05-31 05:00:00,63.1,45.7,29.84,East,92,4.0,17.0,43,0.00,,,0.00,meteohub,2013-05-31 12:00:00,
2013-05-31 05:05:00,63.3,45.7,29.84,SW,233,8.0,15.0,43,0.00,,,0.00,meteohub,2013-05-31 12:05:00,
2013-05-31 05:11:00,63.3,45.5,29.85,NW,326,10.0,17.0,43,0.00,,,0.00,meteohub,2013-05-31 12:11:00,
2013-05-31 05:16:00,63.0,45.5,29.85,NNE,16,6.0,17.0,43,0.00,,,0.00,meteohub,2013-05-31 12:16:00,
2013-05-31 05:22:00,62.8,45.3,29.85,WSW,242,12.0,17.0,43,0.00,,,0.00,meteohub,2013-05-31 12:22:00,
2013-05-31 05:27:00,62.6,45.3,29.85,West,269,7.0,16.0,43,0.00,,,0.00,meteohub,2013-05-31 12:27:00,
2013-05-31 05:32:00,62.4,45.3,29.85,WSW,240,10.0,14.0,43,0.00,,,0.00,meteohub,2013-05-31 12:32:00,
2013-05-31 05:38:00,62.2,45.3,29.85,NNW,340,5.0,13.0,43,0.00,,,0.00,meteohub,2013-05-31 12:38:00,
2013-05-31 05:43:00,62.2,45.3,29.86,WNW,288,6.0,13.0,43,0.00,,,0.00,meteohub,2013-05-31 12:43:00,
2013-05-31 05:49:00,62.2,45.3,29.86,NW,323,6.0,13.0,43,0.00,,,0.00,meteohub,2013-05-31 12:49:00,
2013-05-31 05:54:00,62.4,45.1,29.86,SW,236,7.0,12.0,43,0.00,,,0.00,meteohub,2013-05-31 12:54:00,
2013-05-31 06:00:00,62.6,45.1,29.86,WSW,238,6.0,12.0,43,0.00,,,0.00,meteohub,2013-05-31 13:00:00,
2013-05-31 06:05:00,62.8,45.1,29.86,WSW,256,5.0,11.0,43,0.00,,,0.00,meteohub,2013-05-31 13:05:00,
2013-05-31 06:11:00,63.1,45.1,29.87,West,271,5.0,10.0,43,0.00,,,0.00,meteohub,2013-05-31 13:11:00,
2013-05-31 06:16:00,63.3,45.0,29.87,WSW,243,6.0,11.0,43,0.00,,,0.00,meteohub,2013-05-31 13:16:00,
2013-05-31 06:21:00,63.5,45.0,29.87,NE,40,3.0,11.0,43,0.00,,,0.00,meteohub,2013-05-31 13:21:00,
2013-05-31 06:27:00,63.7,45.0,29.87,SW,229,6.0,11.0,43,0.00,,,0.00,meteohub,2013-05-31 13:27:00,
2013-05-31 06:32:00,63.9,45.0,29.87,WNW,285,6.0,11.0,43,0.00,,,0.00,meteohub,2013-05-31 13:32:00,
2013-05-31 06:37:00,64.2,45.0,29.87,WSW,250,6.0,11.0,43,0.00,,,0.00,meteohub,2013-05-31 13:37:00,
2013-05-31 06:42:00,64.6,45.0,29.87,WSW,243,4.0,11.0,43,0.00,,,0.00,meteohub,2013-05-31 13:42:00,
2013-05-31 06:47:00,64.9,44.8,29.87,North,11,2.0,10.0,43,0.00,,,0.00,meteohub,2013-05-31 13:47:00,
2013-05-31 06:53:00,65.5,44.8,29.87,WSW,240,4.0,9.0,43,0.00,,,0.00,meteohub,2013-05-31 13:53:00,
2013-05-31 06:58:00,65.8,44.8,29.88,West,274,2.0,8.0,43,0.00,,,0.00,meteohub,2013-05-31 13:58:00,
2013-05-31 07:04:00,66.2,44.8,29.88,WSW,241,6.0,6.0,43,0.00,,,0.00,meteohub,2013-05-31 14:04:00,
2013-05-31 07:09:00,66.6,44.8,29.88,WSW,253,4.0,6.0,43,0.00,,,0.00,meteohub,2013-05-31 14:09:00,
2013-05-31 07:15:00,66.7,44.8,29.88,West,263,5.0,7.0,43,0.00,,,0.00,meteohub,2013-05-31 14:15:00,
2013-05-31 07:20:00,66.7,44.8,29.88,WSW,246,3.0,7.0,43,0.00,,,0.00,meteohub,2013-05-31 14:20:00,
2013-05-31 07:26:00,66.9,44.8,29.88,West,263,2.0,9.0,43,0.00,,,0.00,meteohub,2013-05-31 14:26:00,
2013-05-31 07:31:00,67.1,44.6,29.89,West,264,5.0,9.0,43,0.00,,,0.00,meteohub,2013-05-31 14:31:00,
2013-05-31 07:36:00,67.3,44.6,29.89,WSW,242,5.0,9.0,43,0.00,,,0.00,meteohub,2013-05-31 14:36:00,
2013-05-31 07:42:00,67.5,44.6,29.89,SW,233,7.0,8.0,43,0.00,,,0.00,meteohub,2013-05-31 14:42:00,
2013-05-31 07:47:00,67.6,44.6,29.89,SW,236,4.0,8.0,43,0.00,,,0.00,meteohub,2013-05-31 14:47:00,
2013-05-31 07:52:00,67.8,44.4,29.90,WSW,248,3.0,9.0,43,0.00,,,0.00,meteohub,2013-05-31 14:52:00,
2013-05-31 07:58:00,68.2,44.6,29.90,WSW,245,4.0,9.0,43,0.00,,,0.00,meteohub,2013-05-31 14:58:00,
2013-05-31 08:03:00,69.1,44.4,29.90,SW,231,1.0,9.0,43,0.00,,,0.00,meteohub,2013-05-31 15:03:00,
2013-05-31 08:08:00,70.7,44.4,29.90,SSE,150,0.0,7.0,43,0.00,,,0.00,meteohub,2013-05-31 15:08:00,
2013-05-31 08:13:00,72.1,44.4,29.90,WNW,292,1.0,5.0,43,0.00,,,0.00,meteohub,2013-05-31 15:13:00,
2013-05-31 08:19:00,72.3,44.4,29.90,SW,233,2.0,3.0,43,0.00,,,0.00,meteohub,2013-05-31 15:19:00,
2013-05-31 08:24:00,72.1,44.4,29.91,NW,305,2.0,3.0,43,0.00,,,0.00,meteohub,2013-05-31 15:24:00,
2013-05-31 08:30:00,72.5,44.4,29.91,WNW,282,3.0,5.0,43,0.00,,,0.00,meteohub,2013-05-31 15:30:00,
2013-05-31 08:35:00,72.3,44.4,29.91,North,353,2.0,5.0,43,0.00,,,0.00,meteohub,2013-05-31 15:35:00,
2013-05-31 08:40:00,72.3,44.4,29.91,WNW,302,2.0,7.0,43,0.00,,,0.00,meteohub,2013-05-31 15:40:00,
2013-05-31 08:46:00,72.9,44.4,29.91,NW,325,4.0,7.0,43,0.00,,,0.00,meteohub,2013-05-31 15:46:00,
2013-05-31 08:51:00,73.8,44.4,29.91,North,6,3.0,6.0,43,0.00,,,0.00,meteohub,2013-05-31 15:51:00,
2013-05-31 08:56:00,73.8,44.4,29.91,NNE,31,6.0,6.0,43,0.00,,,0.00,meteohub,2013-05-31 15:56:00,
2013-05-31 09:01:00,73.2,45.3,29.91,NE,49,4.0,7.0,44,0.00,,,0.00,meteohub,2013-05-31 16:01:00,
2013-05-31 09:07:00,73.8,45.3,29.91,ESE,121,0.0,7.0,44,0.00,,,0.00,meteohub,2013-05-31 16:07:00,
2013-05-31 09:12:00,75.4,45.3,29.91,East,89,2.0,7.0,44,0.00,,,0.00,meteohub,2013-05-31 16:12:00,
2013-05-31 09:18:00,75.4,45.3,29.90,NE,54,6.0,6.0,44,0.00,,,0.00,meteohub,2013-05-31 16:18:00,
2013-05-31 09:23:00,74.3,45.3,29.90,ENE,75,5.0,9.0,44,0.00,,,0.00,meteohub,2013-05-31 16:23:00,
2013-05-31 09:28:00,74.1,45.3,29.90,NE,56,9.0,9.0,44,0.00,,,0.00,meteohub,2013-05-31 16:28:00,
2013-05-31 09:33:00,74.5,45.3,29.90,NE,46,6.0,9.0,44,0.00,,,0.00,meteohub,2013-05-31 16:33:00,
2013-05-31 09:39:00,73.6,45.5,29.91,NE,41,10.0,10.0,44,0.00,,,0.00,meteohub,2013-05-31 16:39:00,
2013-05-31 09:44:00,73.2,45.5,29.90,NNE,20,5.0,11.0,44,0.00,,,0.00,meteohub,2013-05-31 16:44:00,
2013-05-31 09:49:00,73.2,45.5,29.91,NNE,27,12.0,12.0,44,0.00,,,0.00,meteohub,2013-05-31 16:49:00,
2013-05-31 09:54:00,72.9,44.8,29.90,NE,44,11.0,12.0,43,0.00,,,0.00,meteohub,2013-05-31 16:54:00,
2013-05-31 09:59:00,72.7,44.8,29.90,NE,54,8.0,14.0,43,0.00,,,0.00,meteohub,2013-05-31 16:59:00,
2013-05-31 10:05:00,73.2,44.8,29.90,NNE,22,10.0,16.0,43,0.00,,,0.00,meteohub,2013-05-31 17:05:00,
2013-05-31 10:10:00,73.8,45.0,29.90,NE,41,7.0,16.0,43,0.00,,,0.00,meteohub,2013-05-31 17:10:00,
2013-05-31 10:16:00,73.8,45.0,29.90,NE,34,12.0,13.0,43,0.00,,,0.00,meteohub,2013-05-31 17:16:00,
2013-05-31 10:21:00,73.2,45.0,29.90,NE,37,8.0,15.0,43,0.00,,,0.00,meteohub,2013-05-31 17:21:00,
2013-05-31 10:26:00,73.4,45.0,29.91,NE,36,15.0,15.0,43,0.00,,,0.00,meteohub,2013-05-31 17:26:00,
2013-05-31 10:31:00,73.2,45.0,29.91,NNE,20,13.0,20.0,43,0.00,,,0.00,meteohub,2013-05-31 17:31:00,
2013-05-31 10:37:00,73.8,45.0,29.91,NE,41,10.0,20.0,43,0.00,,,0.00,meteohub,2013-05-31 17:37:00,
2013-05-31 10:42:00,73.6,45.1,29.90,NE,54,9.0,20.0,43,0.00,,,0.00,meteohub,2013-05-31 17:42:00,
2013-05-31 10:47:00,74.1,45.1,29.91,ENE,77,8.0,19.0,43,0.00,,,0.00,meteohub,2013-05-31 17:47:00,
2013-05-31 10:52:00,74.7,45.1,29.91,NNE,33,15.0,19.0,43,0.00,,,0.00,meteohub,2013-05-31 17:52:00,
2013-05-31 10:57:00,74.7,45.7,29.91,NE,56,9.0,17.0,44,0.00,,,0.00,meteohub,2013-05-31 17:57:00,
2013-05-31 11:03:00,74.1,45.9,29.91,NNE,19,10.0,19.0,44,0.00,,,0.00,meteohub,2013-05-31 18:03:00,
2013-05-31 11:08:00,74.1,45.9,29.91,NE,54,11.0,19.0,44,0.00,,,0.00,meteohub,2013-05-31 18:08:00,
2013-05-31 11:13:00,73.9,45.9,29.91,NNE,20,12.0,19.0,44,0.00,,,0.00,meteohub,2013-05-31 18:13:00,
2013-05-31 11:19:00,74.1,45.9,29.91,ENE,58,14.0,20.0,44,0.00,,,0.00,meteohub,2013-05-31 18:19:00,
2013-05-31 11:24:00,74.5,46.0,29.91,NNE,25,15.0,20.0,44,0.00,,,0.00,meteohub,2013-05-31 18:24:00,
2013-05-31 11:30:00,74.5,46.0,29.91,NNE,33,16.0,22.0,44,0.00,,,0.00,meteohub,2013-05-31 18:30:00,
2013-05-31 11:35:00,74.5,46.2,29.91,NE,46,16.0,22.0,44,0.00,,,0.00,meteohub,2013-05-31 18:35:00,
2013-05-31 11:41:00,74.7,46.2,29.91,NNE,29,15.0,22.0,44,0.00,,,0.00,meteohub,2013-05-31 18:41:00,
2013-05-31 11:46:00,75.0,46.2,29.91,NE,36,12.0,22.0,44,0.00,,,0.00,meteohub,2013-05-31 18:46:00,
2013-05-31 11:51:00,74.8,46.4,29.91,NNE,22,19.0,22.0,44,0.00,,,0.00,meteohub,2013-05-31 18:51:00,
2013-05-31 11:57:00,75.4,46.4,29.91,NNE,32,10.0,25.0,44,0.00,,,0.00,meteohub,2013-05-31 18:57:00,
2013-05-31 12:02:00,75.7,46.4,29.91,NNE,27,12.0,25.0,44,0.00,,,0.00,meteohub,2013-05-31 19:02:00,
2013-05-31 12:07:00,75.6,46.4,29.91,NNE,29,20.0,25.0,44,0.00,,,0.00,meteohub,2013-05-31 19:07:00,
2013-05-31 12:12:00,75.4,46.6,29.91,ENE,60,14.0,23.0,44,0.00,,,0.00,meteohub,2013-05-31 19:12:00,
2013-05-31 12:17:00,75.4,46.6,29.90,NE,38,14.0,27.0,44,0.00,,,0.00,meteohub,2013-05-31 19:17:00,
2013-05-31 12:23:00,75.6,46.6,29.91,ENE,71,10.0,27.0,44,0.00,,,0.00,meteohub,2013-05-31 19:23:00,
2013-05-31 12:28:00,75.6,46.8,29.91,NNE,22,15.0,27.0,44,0.00,,,0.00,meteohub,2013-05-31 19:28:00,
2013-05-31 12:33:00,75.2,46.8,29.90,ENE,60,24.0,25.0,44,0.00,,,0.00,meteohub,2013-05-31 19:33:00,
2013-05-31 12:39:00,75.7,46.8,29.90,North,11,21.0,25.0,44,0.00,,,0.00,meteohub,2013-05-31 19:39:00,
2013-05-31 12:44:00,75.7,46.9,29.90,NNE,30,13.0,26.0,44,0.00,,,0.00,meteohub,2013-05-31 19:44:00,
2013-05-31 12:50:00,75.4,46.9,29.90,NNE,32,18.0,26.0,44,0.00,,,0.00,meteohub,2013-05-31 19:50:00,
2013-05-31 12:55:00,75.0,47.1,29.90,NE,39,17.0,24.0,44,0.00,,,0.00,meteohub,2013-05-31 19:55:00,
2013-05-31 13:00:00,75.0,47.1,29.90,NE,49,18.0,26.0,44,0.00,,,0.00,meteohub,2013-05-31 20:00:00,
2013-05-31 13:06:00,75.4,47.1,29.90,NE,34,12.0,26.0,44,0.00,,,0.00,meteohub,2013-05-31 20:06:00,
2013-05-31 13:11:00,75.6,47.3,29.90,NNE,31,18.0,26.0,44,0.00,,,0.00,meteohub,2013-05-31 20:11:00,
2013-05-31 13:16:00,75.6,47.3,29.90,ENE,68,15.0,26.0,44,0.00,,,0.00,meteohub,2013-05-31 20:16:00,
2013-05-31 13:21:00,75.6,47.3,29.90,ENE,60,21.0,24.0,44,0.00,,,0.00,meteohub,2013-05-31 20:21:00,
2013-05-31 13:27:00,75.4,47.5,29.90,NE,41,20.0,23.0,44,0.00,,,0.00,meteohub,2013-05-31 20:27:00,
2013-05-31 13:32:00,75.6,47.5,29.89,NNE,27,18.0,24.0,44,0.00,,,0.00,meteohub,2013-05-31 20:32:00,
2013-05-31 13:37:00,75.4,47.5,29.90,NNE,19,13.0,27.0,44,0.00,,,0.00,meteohub,2013-05-31 20:37:00,
2013-05-31 13:43:00,75.4,47.5,29.89,NE,39,11.0,27.0,44,0.00,,,0.00,meteohub,2013-05-31 20:43:00,
2013-05-31 13:48:00,75.7,47.5,29.89,NE,51,17.0,27.0,44,0.00,,,0.00,meteohub,2013-05-31 20:48:00,
2013-05-31 13:54:00,75.4,47.7,29.89,NE,40,15.0,23.0,44,0.00,,,0.00,meteohub,2013-05-31 20:54:00,
2013-05-31 13:59:00,76.1,47.7,29.89,NE,46,19.0,23.0,44,0.00,,,0.00,meteohub,2013-05-31 20:59:00,
2013-05-31 14:05:00,76.1,47.8,29.89,NE,40,11.0,23.0,44,0.00,,,0.00,meteohub,2013-05-31 21:05:00,
2013-05-31 14:10:00,76.3,47.8,29.89,NNE,33,18.0,24.0,44,0.00,,,0.00,meteohub,2013-05-31 21:10:00,
2013-05-31 14:15:00,76.3,47.8,29.89,NE,34,14.0,24.0,44,0.00,,,0.00,meteohub,2013-05-31 21:15:00,
2013-05-31 14:21:00,76.6,48.0,29.89,NE,34,13.0,24.0,44,0.00,,,0.00,meteohub,2013-05-31 21:21:00,
2013-05-31 14:26:00,76.6,48.0,29.89,NNE,20,15.0,25.0,44,0.00,,,0.00,meteohub,2013-05-31 21:26:00,
2013-05-31 14:31:00,76.5,48.2,29.89,NE,47,16.0,25.0,44,0.00,,,0.00,meteohub,2013-05-31 21:31:00,
2013-05-31 14:37:00,76.6,48.2,29.89,NNE,32,12.0,25.0,44,0.00,,,0.00,meteohub,2013-05-31 21:37:00,
2013-05-31 14:42:00,76.6,48.2,29.89,NNE,27,10.0,21.0,44,0.00,,,0.00,meteohub,2013-05-31 21:42:00,
2013-05-31 14:47:00,76.5,48.4,29.88,NNE,31,16.0,21.0,44,0.00,,,0.00,meteohub,2013-05-31 21:47:00,
2013-05-31 14:52:00,76.8,48.4,29.88,NE,49,16.0,21.0,44,0.00,,,0.00,meteohub,2013-05-31 21:52:00,
2013-05-31 14:58:00,76.6,48.4,29.88,ENE,61,14.0,21.0,44,0.00,,,0.00,meteohub,2013-05-31 21:58:00,
2013-05-31 15:03:00,77.0,48.6,29.88,NE,41,14.0,23.0,44,0.00,,,0.00,meteohub,2013-05-31 22:03:00,
2013-05-31 15:09:00,76.8,48.7,29.88,NNE,15,15.0,23.0,44,0.00,,,0.00,meteohub,2013-05-31 22:09:00,
2013-05-31 15:14:00,76.8,48.7,29.88,ENE,61,15.0,21.0,44,0.00,,,0.00,meteohub,2013-05-31 22:14:00,
2013-05-31 15:19:00,76.8,48.9,29.88,NE,44,13.0,21.0,44,0.00,,,0.00,meteohub,2013-05-31 22:19:00,
2013-05-31 15:25:00,76.6,48.9,29.88,NE,39,17.0,21.0,44,0.00,,,0.00,meteohub,2013-05-31 22:25:00,
2013-05-31 15:30:00,77.0,48.9,29.88,NE,43,13.0,21.0,44,0.00,,,0.00,meteohub,2013-05-31 22:30:00,
2013-05-31 15:36:00,77.0,49.1,29.88,NNE,29,15.0,21.0,44,0.00,,,0.00,meteohub,2013-05-31 22:36:00,
2013-05-31 15:41:00,77.0,49.1,29.87,NE,50,13.0,21.0,44,0.00,,,0.00,meteohub,2013-05-31 22:41:00,
2013-05-31 15:47:00,77.4,49.1,29.87,NNE,33,9.0,20.0,44,0.00,,,0.00,meteohub,2013-05-31 22:47:00,
2013-05-31 15:52:00,77.4,49.1,29.87,ENE,68,10.0,19.0,44,0.00,,,0.00,meteohub,2013-05-31 22:52:00,
2013-05-31 15:57:00,77.0,49.3,29.87,NE,44,11.0,19.0,44,0.00,,,0.00,meteohub,2013-05-31 22:57:00,
2013-05-31 16:02:00,77.2,49.3,29.87,NE,46,13.0,18.0,44,0.00,,,0.00,meteohub,2013-05-31 23:02:00,
2013-05-31 16:08:00,77.4,49.5,29.87,NE,46,16.0,18.0,44,0.00,,,0.00,meteohub,2013-05-31 23:08:00,
2013-05-31 16:13:00,77.2,49.5,29.88,NNE,15,8.0,18.0,44,0.00,,,0.00,meteohub,2013-05-31 23:13:00,
2013-05-31 16:19:00,77.7,49.6,29.87,NNE,27,9.0,17.0,44,0.00,,,0.00,meteohub,2013-05-31 23:19:00,
2013-05-31 16:24:00,77.7,49.6,29.88,NE,36,9.0,16.0,44,0.00,,,0.00,meteohub,2013-05-31 23:24:00,
2013-05-31 16:29:00,77.5,49.8,29.87,NE,53,12.0,16.0,44,0.00,,,0.00,meteohub,2013-05-31 23:29:00,
2013-05-31 16:35:00,77.5,49.8,29.87,NE,44,10.0,16.0,44,0.00,,,0.00,meteohub,2013-05-31 23:35:00,
2013-05-31 16:40:00,77.7,50.0,29.87,NE,54,10.0,16.0,44,0.00,,,0.00,meteohub,2013-05-31 23:40:00,
2013-05-31 16:46:00,77.4,50.0,29.87,NNE,20,11.0,16.0,44,0.00,,,0.00,meteohub,2013-05-31 23:46:00,
2013-05-31 16:51:00,77.5,50.2,29.87,ENE,67,6.0,16.0,44,0.00,,,0.00,meteohub,2013-05-31 23:51:00,
2013-05-31 16:56:00,77.7,50.4,29.87,NE,47,12.0,15.0,44,0.00,,,0.00,meteohub,2013-05-31 23:56:00,
2013-05-31 17:02:00,77.5,50.4,29.87,NE,40,13.0,15.0,44,0.00,,,0.00,meteohub,2013-06-01 00:02:00,
2013-05-31 17:07:00,77.4,50.4,29.87,NNE,33,6.0,15.0,44,0.00,,,0.00,meteohub,2013-06-01 00:07:00,
2013-05-31 17:12:00,78.1,50.5,29.87,NE,35,8.0,15.0,44,0.00,,,0.00,meteohub,2013-06-01 00:12:00,
2013-05-31 17:17:00,77.7,50.5,29.87,NNE,31,5.0,15.0,44,0.00,,,0.00,meteohub,2013-06-01 00:17:00,
2013-05-31 17:22:00,77.4,50.7,29.88,ENE,71,9.0,14.0,44,0.00,,,0.00,meteohub,2013-06-01 00:22:00,
2013-05-31 17:27:00,77.5,50.7,29.87,ENE,65,12.0,14.0,44,0.00,,,0.00,meteohub,2013-06-01 00:27:00,
2013-05-31 17:33:00,77.5,50.9,29.87,NE,36,8.0,14.0,44,0.00,,,0.00,meteohub,2013-06-01 00:33:00,
2013-05-31 17:38:00,77.4,50.9,29.87,NE,37,9.0,14.0,44,0.00,,,0.00,meteohub,2013-06-01 00:38:00,
2013-05-31 17:44:00,77.2,50.9,29.87,NNE,32,6.0,14.0,44,0.00,,,0.00,meteohub,2013-06-01 00:44:00,
2013-05-31 17:49:00,77.2,51.1,29.87,NE,38,8.0,14.0,44,0.00,,,0.00,meteohub,2013-06-01 00:49:00,
2013-05-31 17:55:00,77.2,51.1,29.87,NE,52,12.0,14.0,44,0.00,,,0.00,meteohub,2013-06-01 00:55:00,
2013-05-31 18:00:00,77.0,51.3,29.87,NE,46,12.0,14.0,44,0.00,,,0.00,meteohub,2013-06-01 01:00:00,
2013-05-31 18:05:00,77.0,51.3,29.87,NNE,19,8.0,13.0,44,0.00,,,0.00,meteohub,2013-06-01 01:05:00,
2013-05-31 18:10:00,76.8,51.4,29.87,NE,51,6.0,12.0,44,0.00,,,0.00,meteohub,2013-06-01 01:10:00,
2013-05-31 18:16:00,76.8,51.4,29.87,NE,37,11.0,14.0,44,0.00,,,0.00,meteohub,2013-06-01 01:16:00,
2013-05-31 18:21:00,76.6,51.6,29.87,NE,39,9.0,14.0,44,0.00,,,0.00,meteohub,2013-06-01 01:21:00,
2013-05-31 18:26:00,76.5,51.6,29.87,NNE,32,12.0,14.0,44,0.00,,,0.00,meteohub,2013-06-01 01:26:00,
2013-05-31 18:31:00,76.5,51.8,29.87,NE,36,9.0,14.0,44,0.00,,,0.00,meteohub,2013-06-01 01:31:00,
2013-05-31 18:36:00,76.3,51.8,29.87,NNE,33,7.0,14.0,44,0.00,,,0.00,meteohub,2013-06-01 01:36:00,
2013-05-31 18:42:00,76.1,51.3,29.87,NNE,16,8.0,14.0,43,0.00,,,0.00,meteohub,2013-06-01 01:42:00,
2013-05-31 18:47:00,75.9,51.3,29.87,North,8,10.0,13.0,43,0.00,,,0.00,meteohub,2013-06-01 01:47:00,
2013-05-31 18:52:00,75.9,51.4,29.87,NE,53,11.0,13.0,43,0.00,,,0.00,meteohub,2013-06-01 01:52:00,
2013-05-31 18:57:00,75.7,51.4,29.87,NNE,30,7.0,12.0,43,0.00,,,0.00,meteohub,2013-06-01 01:57:00,
2013-05-31 19:02:00,75.7,51.4,29.87,NE,52,9.0,12.0,43,0.00,,,0.00,meteohub,2013-06-01 02:02:00,
2013-05-31 19:08:00,75.6,51.6,29.87,NNE,13,7.0,13.0,43,0.00,,,0.00,meteohub,2013-06-01 02:08:00,
2013-05-31 19:13:00,75.4,51.6,29.87,NNE,23,10.0,13.0,43,0.00,,,0.00,meteohub,2013-06-01 02:13:00,
2013-05-31 19:18:00,75.2,51.6,29.87,NNE,16,6.0,13.0,43,0.00,,,0.00,meteohub,2013-06-01 02:18:00,
2013-05-31 19:23:00,74.8,51.6,29.87,NNE,13,5.0,13.0,43,0.00,,,0.00,meteohub,2013-06-01 02:23:00,
2013-05-31 19:29:00,74.1,51.6,29.88,NNE,27,7.0,13.0,43,0.00,,,0.00,meteohub,2013-06-01 02:29:00,
2013-05-31 19:34:00,73.6,51.8,29.87,NE,47,5.0,13.0,43,0.00,,,0.00,meteohub,2013-06-01 02:34:00,
2013-05-31 19:40:00,73.0,51.8,29.87,NE,37,7.0,11.0,43,0.00,,,0.00,meteohub,2013-06-01 02:40:00,
2013-05-31 19:45:00,72.7,51.8,29.88,ENE,68,6.0,8.0,43,0.00,,,0.00,meteohub,2013-06-01 02:45:00,
2013-05-31 19:51:00,72.5,51.8,29.88,NE,37,4.0,8.0,43,0.00,,,0.00,meteohub,2013-06-01 02:51:00,
2013-05-31 19:56:00,72.1,51.8,29.88,NE,49,7.0,8.0,43,0.00,,,0.00,meteohub,2013-06-01 02:56:00,
2013-05-31 20:02:00,72.1,51.8,29.88,NE,51,4.0,8.0,43,0.00,,,0.00,meteohub,2013-06-01 03:02:00,
2013-05-31 20:07:00,72.0,51.8,29.88,NE,50,4.0,7.0,43,0.00,,,0.00,meteohub,2013-06-01 03:07:00,
2013-05-31 20:12:00,71.8,51.8,29.88,ENE,65,6.0,7.0,43,0.00,,,0.00,meteohub,2013-06-01 03:12:00,
2013-05-31 20:18:00,71.6,51.8,29.88,NE,56,5.0,6.0,43,0.00,,,0.00,meteohub,2013-06-01 03:18:00,
2013-05-31 20:23:00,71.4,51.8,29.87,NE,36,4.0,6.0,43,0.00,,,0.00,meteohub,2013-06-01 03:23:00,
2013-05-31 20:29:00,71.4,51.8,29.88,NE,44,4.0,6.0,43,0.00,,,0.00,meteohub,2013-06-01 03:29:00,
2013-05-31 20:34:00,71.4,51.8,29.88,NE,49,4.0,7.0,43,0.00,,,0.00,meteohub,2013-06-01 03:34:00,
2013-05-31 20:40:00,71.4,51.8,29.88,NE,37,5.0,8.0,43,0.00,,,0.00,meteohub,2013-06-01 03:40:00,
2013-05-31 20:45:00,71.4,51.8,29.88,ENE,77,5.0,8.0,43,0.00,,,0.00,meteohub,2013-06-01 03:45:00,
2013-05-31 20:51:00,71.8,51.8,29.88,ENE,67,3.0,7.0,43,0.00,,,0.00,meteohub,2013-06-01 03:51:00,
2013-05-31 20:56:00,71.4,51.3,29.88,NE,40,4.0,7.0,42,0.00,,,0.00,meteohub,2013-06-01 03:56:00,
2013-05-31 21:01:00,71.4,51.1,29.88,NE,40,4.0,8.0,42,0.00,,,0.00,meteohub,2013-06-01 04:01:00,
2013-05-31 21:02:00,71.2,51.1,29.88,NE,53,5.0,8.0,42,0.00,,,0.00,meteohub,2013-06-01 04:02:00,
2013-05-31 21:03:00,71.2,51.3,29.88,NE,42,4.0,8.0,42,0.00,,,0.00,meteohub,2013-06-01 04:03:00,
2013-05-31 21:06:00,71.2,51.3,29.88,ENE,75,4.0,8.0,42,0.00,,,0.00,meteohub,2013-06-01 04:06:00,
2013-05-31 21:11:00,71.1,51.1,29.88,NE,51,5.0,8.0,42,0.00,,,0.00,meteohub,2013-06-01 04:11:00,
2013-05-31 21:16:00,70.9,51.1,29.88,NE,53,4.0,6.0,42,0.00,,,0.00,meteohub,2013-06-01 04:16:00,
2013-05-31 21:22:00,71.1,51.1,29.88,NE,51,3.0,6.0,42,0.00,,,0.00,meteohub,2013-06-01 04:22:00,
2013-05-31 21:27:00,71.1,51.1,29.88,NE,56,4.0,6.0,42,0.00,,,0.00,meteohub,2013-06-01 04:27:00,
2013-05-31 21:32:00,70.5,51.1,29.89,NNE,32,5.0,6.0,42,0.00,,,0.00,meteohub,2013-06-01 04:32:00,
2013-05-31 21:38:00,70.5,51.1,29.88,NE,51,4.0,6.0,42,0.00,,,0.00,meteohub,2013-06-01 04:38:00,
2013-05-31 21:43:00,70.7,51.1,29.89,NE,54,4.0,6.0,42,0.00,,,0.00,meteohub,2013-06-01 04:43:00,
2013-05-31 21:48:00,70.9,50.9,29.89,ENE,58,5.0,6.0,42,0.00,,,0.00,meteohub,2013-06-01 04:48:00,
2013-05-31 21:54:00,71.1,50.9,29.89,NE,49,3.0,6.0,42,0.00,,,0.00,meteohub,2013-06-01 04:54:00,
2013-05-31 21:59:00,71.1,50.9,29.89,NE,44,3.0,6.0,42,0.00,,,0.00,meteohub,2013-06-01 04:59:00,
2013-05-31 22:04:00,70.9,50.9,29.89,NNE,25,4.0,6.0,42,0.00,,,0.00,meteohub,2013-06-01 05:04:00,
2013-05-31 22:10:00,70.5,50.9,29.89,NE,47,3.0,5.0,42,0.00,,,0.00,meteohub,2013-06-01 05:10:00,
2013-05-31 22:15:00,70.5,50.7,29.89,NE,50,4.0,5.0,42,0.00,,,0.00,meteohub,2013-06-01 05:15:00,
2013-05-31 22:21:00,70.3,50.7,29.89,NE,49,4.0,6.0,42,0.00,,,0.00,meteohub,2013-06-01 05:21:00,
2013-05-31 22:26:00,70.2,50.7,29.88,NE,50,4.0,6.0,42,0.00,,,0.00,meteohub,2013-06-01 05:26:00,
2013-05-31 22:32:00,70.2,50.7,29.88,NE,52,4.0,6.0,42,0.00,,,0.00,meteohub,2013-06-01 05:32:00,
2013-05-31 22:37:00,70.0,50.7,29.88,NE,36,4.0,5.0,42,0.00,,,0.00,meteohub,2013-06-01 05:37:00,
2013-05-31 22:42:00,69.6,50.5,29.88,NE,54,3.0,7.0,42,0.00,,,0.00,meteohub,2013-06-01 05:42:00,
2013-05-31 22:47:00,69.8,50.5,29.88,NE,34,4.0,7.0,42,0.00,,,0.00,meteohub,2013-06-01 05:47:00,
2013-05-31 22:53:00,69.8,50.5,29.88,NE,54,4.0,7.0,42,0.00,,,0.00,meteohub,2013-06-01 05:53:00,
2013-05-31 22:58:00,69.8,50.4,29.88,NE,53,4.0,6.0,42,0.00,,,0.00,meteohub,2013-06-01 05:58:00,
2013-05-31 23:03:00,69.8,50.4,29.88,NE,40,4.0,6.0,42,0.00,,,0.00,meteohub,2013-06-01 06:03:00,
2013-05-31 23:09:00,70.0,50.4,29.88,ENE,57,4.0,5.0,42,0.00,,,0.00,meteohub,2013-06-01 06:09:00,
2013-05-31 23:14:00,70.0,50.4,29.88,NE,43,5.0,6.0,42,0.00,,,0.00,meteohub,2013-06-01 06:14:00,
2013-05-31 23:20:00,70.0,50.2,29.88,NE,50,5.0,6.0,42,0.00,,,0.00,meteohub,2013-06-01 06:20:00,
2013-05-31 23:25:00,70.0,50.2,29.88,ENE,57,5.0,8.0,42,0.00,,,0.00,meteohub,2013-06-01 06:25:00,
2013-05-31 23:30:00,70.0,50.2,29.88,NE,43,6.0,8.0,42,0.00,,,0.00,meteohub,2013-06-01 06:30:00,
2013-05-31 23:36:00,69.8,50.2,29.88,NE,51,5.0,8.0,42,0.00,,,0.00,meteohub,2013-06-01 06:36:00,
2013-05-31 23:41:00,69.6,50.0,29.87,NE,43,5.0,8.0,42,0.00,,,0.00,meteohub,2013-06-01 06:41:00,
2013-05-31 23:46:00,69.4,50.0,29.87,NE,34,6.0,7.0,42,0.00,,,0.00,meteohub,2013-06-01 06:46:00,
2013-05-31 23:52:00,69.4,50.0,29.87,NE,47,7.0,8.0,42,0.00,,,0.00,meteohub,2013-06-01 06:52:00,
2013-05-31 23:57:00,69.4,50.0,29.87,NE,34,7.0,8.0,42,0.00,,,0.00,meteohub,2013-06-01 06:57:00,